This is the latest recevied weather packets stored in our database for station/object KC4KQE. If no packets are shown the sender has not sent any weather packets the latest 1 day(s).
| Time | Temp. | Humidity | Pressure | Rain* | Wind** | Luminosity | Snow |
|---|---|---|---|---|---|---|---|
| 1836274634 | 31.11° C | 37% | 1013 hPa | 0 mm | 1.79 m/s, 0° | 0 W/m² | - |
| 1836274490 | 31.11° C | 37% | 1013 hPa | 0 mm | 0.45 m/s, 35° | 0 W/m² | - |
| 1836274334 | 31.11° C | 37% | 1012.9 hPa | 0 mm | 3.13 m/s, 5° | 0 W/m² | - |
| 1836274184 | 31.11° C | 37% | 1013 hPa | 0 mm | 2.24 m/s, 355° | 0 W/m² | - |
| 1836274034 | 31.11° C | 37% | 1012.9 hPa | 0 mm | 1.79 m/s, 15° | 0 W/m² | - |
| 1778042956 | 17.78° C | 35% | 1013 hPa | 0 mm | 0 m/s | 0 W/m² | - |
| 1778042657 | 17.78° C | 35% | 1013 hPa | 0 mm | 0.45 m/s, 110° | 0 W/m² | - |
| 1778042356 | 17.78° C | 34% | 1012.9 hPa | 0 mm | 0.45 m/s, 110° | 0 W/m² | - |
| 1778042056 | 17.78° C | 34% | 1012.9 hPa | 0 mm | 0.45 m/s, 110° | 0 W/m² | - |
| 1778041756 | 18.33° C | 34% | 1012.8 hPa | 0 mm | 0 m/s | 0 W/m² | - |
| 1778041456 | 18.33° C | 33% | 1012.8 hPa | 0 mm | 0.89 m/s, 110° | 0 W/m² | - |
| 1778041156 | 18.33° C | 34% | 1012.7 hPa | 0 mm | 0.89 m/s, 110° | 0 W/m² | - |
| 1778040856 | 18.33° C | 33% | 1012.7 hPa | 0 mm | 0.45 m/s, 110° | 0 W/m² | - |
| 1778040556 | 18.33° C | 34% | 1012.6 hPa | 0 mm | 0.89 m/s, 110° | 0 W/m² | - |
| 1778040256 | 18.89° C | 32% | 1012.5 hPa | 0 mm | 0.45 m/s, 110° | 0 W/m² | - |
| 1778039956 | 19.44° C | 31% | 1012.4 hPa | 0 mm | 0 m/s | 0 W/m² | - |
| 1778039657 | 20° C | 30% | 1012.3 hPa | 0 mm | 0.45 m/s, 110° | 0 W/m² | - |
| 1778039356 | 20° C | 30% | 1012.3 hPa | 0 mm | 1.34 m/s, 110° | 0 W/m² | - |
| 1778039056 | 20° C | 30% | 1012.3 hPa | 0 mm | 0.89 m/s, 110° | 0 W/m² | - |
| 1778038756 | 20.56° C | 29% | 1012.2 hPa | 0 mm | 0.89 m/s, 110° | 0 W/m² | - |
| 1778038456 | 20.56° C | 29% | 1012.1 hPa | 0 mm | 0.45 m/s, 110° | 0 W/m² | - |
| 1778038156 | 20.56° C | 28% | 1012.1 hPa | 0 mm | 1.34 m/s, 110° | 0 W/m² | - |
| 1778037856 | 20.56° C | 28% | 1012 hPa | 0 mm | 1.79 m/s, 110° | 0 W/m² | - |
| 1778037556 | 21.11° C | 28% | 1011.9 hPa | 0 mm | 1.79 m/s, 110° | 0 W/m² | - |
| 1778037256 | 21.11° C | 28% | 1011.8 hPa | 0 mm | 1.34 m/s, 110° | 0 W/m² | - |
* Rain latest hour (hover to see other rain measurements)
** Current wind speed in m/s (hover to see current wind gust speed)